Weather History for Olathe, KS

Change the Weather History Date:

Sunday, December 9, 2012

  Actual Average Record
Temperature  
Mean Temperature 32 °F 34 °F  
Max Temperature 44 °F 42 °F 66 °F (1990)
Min Temperature 20 °F 25 °F -4 °F (2005)
Degree Days  
Heating Degree Days 33 31  
Month to date heating degree days 149 268  
Since 1 July heating degree days 1080 1223  
Cooling Degree Days 0 0  
Month to date cooling degree days 0 0  
Year to date cooling degree days 1831 1349  
Moisture  
Dew Point 31 °F    
Average Humidity 78    
Maximum Humidity 100    
Minimum Humidity 55    
Precipitation  
Precipitation 0.00 in 0.04 in 1.01 in (2003)
Month to date precipitation 0.03 0.47  
Year to date precipitation 24.30 38.87  
Sea Level Pressure  
Sea Level Pressure 29.91 in    
Wind  
Wind Speed 10 mph (NNW)    
Max Wind Speed 22 mph    
Max Gust Speed 30 mph    
Visibility 5 miles    
Events Fog    
T = Trace of Precipitation, MM = Missing Value Source: NWS Daily Summary

Daily Weather History Graph

Daily Weather History Graph

Search for Another Location

Airport:

Trip Planner

Search our weather history database for the weather conditions in past years. The results will help you decide how hot, cold, wet, or windy it might be!

Date:

Astronomy

Dec. 09, 2012 Rise Set
Actual Time 7:26 AM CST 4:56 PM CST
Civil Twilight 6:56 AM CST 5:26 PM CST
Nautical Twilight 6:23 AM CST 6:00 PM CST
Astronomical Twilight 5:50 AM CST 6:32 PM CST
Moon 3:01 AM CST (12/9) 2:02 PM CST (12/9)
Length of Visible Light 10h 30m
Length of Day
9h 30m
Waning Crescent, 18% of the Moon is Illuminated
Dec 9
Waning Crescent
Dec 13
New
Dec 19
First Quarter
Dec 28
Full
Jan 4
Last Quarter

Hourly Weather History & Observations

Time (CST) Temp. Windchill Dew Point Humidity Pressure Visibility Wind Dir Wind Speed Gust Speed Precip Events Conditions
12:53 AM 39.9 °F 36.7 °F - N/A% 29.86 in 5.0 mi East 4.6 mph - N/A   Haze
1:53 AM 39.9 °F 36.7 °F - N/A% 29.84 in 4.0 mi East 4.6 mph - N/A   Haze
2:12 AM 39.2 °F 37.0 °F - N/A% 29.84 in 4.0 mi ESE 3.5 mph - N/A   Haze
2:53 AM 39.9 °F - - N/A% 29.84 in 3.0 mi Calm Calm - N/A   Overcast
3:30 AM 39.2 °F 37.0 °F 39.2 °F 100% 29.82 in 2.5 mi NNE 3.5 mph - N/A   Overcast
3:53 AM 39.9 °F 37.8 °F 39.9 °F 100% 29.83 in 2.0 mi North 3.5 mph - N/A   Overcast
4:02 AM 39.2 °F 37.0 °F 39.2 °F 100% 29.81 in 1.8 mi NNE 3.5 mph - N/A   Overcast
4:40 AM 39.2 °F - 39.2 °F 100% 29.82 in 1.2 mi Calm Calm - N/A   Overcast
4:53 AM 39.9 °F - 39.9 °F 100% 29.84 in 1.0 mi Calm Calm - N/A   Overcast
5:25 AM 39.2 °F - 39.2 °F 100% 29.83 in 0.8 mi Calm Calm - N/A   Overcast
5:53 AM 39.9 °F - 39.9 °F 100% 29.86 in 0.5 mi Calm Calm - N/A Fog Fog
6:24 AM 39.2 °F 34.2 °F 39.2 °F 100% 29.83 in 1.0 mi North 6.9 mph - N/A   Overcast
6:31 AM 39.2 °F 32.0 °F 39.2 °F 100% 29.82 in 0.5 mi North 11.5 mph - N/A Fog Fog
6:53 AM 39.9 °F 33.9 °F 39.9 °F 100% 29.86 in 0.5 mi NNW 9.2 mph - N/A Fog Fog
7:01 AM 39.2 °F 34.2 °F 39.2 °F 100% 29.85 in 1.0 mi NNW 6.9 mph - N/A   Overcast
7:07 AM 39.2 °F 34.2 °F 39.2 °F 100% 29.86 in 2.0 mi NNW 6.9 mph - N/A   Overcast
7:16 AM 39.2 °F 35.0 °F 39.2 °F 100% 29.86 in 1.2 mi NNW 5.8 mph - N/A   Overcast
7:44 AM 39.2 °F 33.6 °F 39.2 °F 100% 29.86 in 2.0 mi NNW 8.1 mph - N/A   Overcast
7:53 AM 39.0 °F 34.8 °F 39.0 °F 100% 29.88 in 2.5 mi NNW 5.8 mph - N/A   Overcast
8:16 AM 39.2 °F 33.6 °F 39.2 °F 100% 29.86 in 2.0 mi NNW 8.1 mph - N/A   Overcast
8:53 AM 39.9 °F 33.4 °F 39.0 °F 97% 29.88 in 2.5 mi NNW 10.4 mph - N/A   Overcast
9:03 AM 39.2 °F 33.6 °F 39.2 °F 100% 29.88 in 3.0 mi NNW 8.1 mph - N/A   Overcast
9:11 AM 39.2 °F 35.0 °F 39.2 °F 100% 29.88 in 3.0 mi NW 5.8 mph - N/A   Overcast
9:53 AM 41.0 °F 36.4 °F 37.9 °F 89% 29.90 in 4.0 mi NNW 6.9 mph - N/A   Overcast
10:41 AM 42.8 °F 36.6 °F 37.4 °F 81% 29.90 in 4.0 mi NNW 11.5 mph - N/A   Overcast
10:53 AM 41.0 °F 33.9 °F 37.9 °F 89% 29.92 in 4.0 mi NNW 12.7 mph - N/A   Overcast
11:53 AM 43.0 °F 36.8 °F 37.9 °F 82% 29.89 in 5.0 mi NNW 11.5 mph - N/A   Haze
12:29 PM 42.8 °F 35.1 °F 35.6 °F 76% 29.90 in 6.0 mi NW 16.1 mph 20.7 mph N/A   Haze
12:53 PM 41.0 °F 33.9 °F 33.1 °F 73% 29.92 in 10.0 mi NW 12.7 mph 21.9 mph N/A   Overcast
1:53 PM 42.1 °F 34.9 °F 30.9 °F 65% 29.91 in 10.0 mi NNW 13.8 mph 21.9 mph N/A   Overcast
2:13 PM 42.8 °F 35.8 °F 30.2 °F 61% 29.89 in 10.0 mi NNW 13.8 mph 21.9 mph N/A   Scattered Clouds
2:44 PM 41.0 °F 32.8 °F 28.4 °F 61% 29.91 in 10.0 mi NW 16.1 mph 23.0 mph N/A   Scattered Clouds
2:53 PM 41.0 °F 32.2 °F 28.0 °F 60% 29.93 in 10.0 mi NW 18.4 mph 25.3 mph N/A   Scattered Clouds
3:53 PM 36.0 °F 27.5 °F 21.9 °F 57% 29.97 in 10.0 mi NW 12.7 mph 23.0 mph N/A   Clear
4:53 PM 30.9 °F 19.8 °F 17.1 °F 57% 30.01 in 10.0 mi NNW 16.1 mph 25.3 mph N/A   Clear
5:53 PM 27.0 °F 14.7 °F 14.0 °F 58% 30.04 in 10.0 mi NW 16.1 mph 23.0 mph N/A   Clear
6:53 PM 27.0 °F 16.1 °F 12.0 °F 53% 30.05 in 10.0 mi NW 12.7 mph 21.9 mph N/A   Clear
7:53 PM 25.0 °F 10.9 °F 12.9 °F 60% 30.06 in 10.0 mi NNW 19.6 mph 29.9 mph N/A   Clear
8:53 PM 24.1 °F 10.1 °F 10.9 °F 57% 30.08 in 10.0 mi NNW 18.4 mph 26.5 mph N/A   Partly Cloudy
9:09 PM 24.8 °F 12.9 °F 10.4 °F 54% 30.05 in 10.0 mi NNW 13.8 mph 25.3 mph N/A   Mostly Cloudy
9:38 PM 23.0 °F 8.3 °F 10.4 °F 59% 30.06 in 10.0 mi NNW 19.6 mph 28.8 mph N/A   Scattered Clouds
9:53 PM 21.9 °F 7.8 °F 10.0 °F 60% 30.08 in 10.0 mi NW 17.3 mph 25.3 mph N/A   Partly Cloudy
10:53 PM 21.0 °F 8.1 °F 10.0 °F 63% 30.09 in 10.0 mi WNW 13.8 mph 23.0 mph N/A   Mostly Cloudy
11:53 PM 19.9 °F 7.3 °F 10.0 °F 65% 30.08 in 10.0 mi NW 12.7 mph - N/A   Clear